Cloud_Cover
99 98 100 100 100 100 100 100 80 74 100 100 95 100 100 100 100 100 100 100 100 100 100 100 100 100 100 100 100 100 100 100 100 71 87 23 5 5 22 17 5 5 4 31
100 100 100 100 100 100 100 100 100 100 86 100 100 100 100 100 100 100 100 100 100 100 100 100 100 100 78 36 44 100 100 95 36 24 6 5 5 4 0 3 5 4 6 5
98 100 95 100 100 100 100 92 100 100 100 100 100 100 100 100 100 100 100 100 100 100 100 100 100 100 100 100 100 100 73 10 51 90 5 5 0 0 5 5 5 7 59 5
100 100 100 100 100 100 100 100 97 100 90 100 100 100 100 100 100 90 100 100 100 100 100 100 100 96 70 52 100 83 27 4 33 5 3 0 5 5 5 6 63 3 5 5
99 100 93 98 100 91 100 100 100 100 100 100 100 100 83 99 100 100 99 57 87 66 65 66 85 90 44 86 1 1 16 0 5 5 5 5 34 96 100 90 21 18 7 5
92 100 100 95 99 95 100 92 100 100 100 100 100 100 94 90 100 100 99 92 17 19 78 98 100 100 24 1 42 87 0 1 5 5 5 5 37 17 34 5 5 5 39 89
84 91 95 100 100 100 100 100 100 100 100 100 100 100 100 90 98 82 61 35 5 33 5 2 5 51 99 2 0 0 0 6 5 5 1 0 7 5 5 6 52 42 96 98
80 98 87 100 100 100 100 100 100 100 80 85 100 97 86 41 5 5 5 26 14 2 0 0 3 2 0 0 0 0 3 5 4 27 9 3 5 5 8 13 84 67 99 100
91 100 90 88 100 100 100 90 94 64 22 77 31 5 4 2 22 46 7 4 0 0 0 0 0 0 0 0 0 5 5 6 5 100 100 33 20 22 73 87 100 100 75 8
19 90 100 97 76 65 86 26 5 18 4 4 20 47 100 16 4 0 0 0 0 0 0 0 0 0 0 0 0 3 8 100 100 100 59 20 25 89 72 97 100 100 94 5
100 100 96 67 4 5 14 5 0 0 46 44 5 89 9 0 0 0 0 0 0 0 0 0 0 23 2 96 74 21 10 100 100 100 7 36 75 90 100 100 100 22 50 5
82 53 11 4 5 1 0 26 5 7 5 4 0 0 2 0 0 0 0 0 0 0 0 0 0 99 100 100 100 100 85 100 100 99 69 95 96 100 100 98 99 100 57 22
67 2 0 3 23 5 5 5 5 1 29 0 15 0 0 0 0 0 0 0 0 2 2 4 32 100 100 100 93 100 91 98 86 82 86 100 100 100 100 100 100 81 92 100
0 5 5 18 4 87 77 6 1 5 4 0 0 0 5 0 1 2 3 0 0 4 3 36 100 100 100 100 100 100 100 100 96 99 100 100 100 99 100 98 88 99 81 80
15 69 18 5 5 79 0 50 64 5 5 3 0 0 0 1 24 20 5 1 5 0 4 26 91 84 42 69 100 100 100 78 89 100 100 100 79 100 100 100 95 100 100 100
23 5 5 5 3 0 0 4 2 0 0 0 0 0 0 1 5 5 35 4 5 5 5 5 5 5 23 100 100 100 75 63 100 100 100 100 100 100 86 93 100 100 100 100
58 5 5 5 2 5 5 0 0 0 0 0 1 5 5 4 5 6 5 5 6 5 5 5 5 10 98 100 100 97 65 92 100 100 100 100 100 100 100 100 100 100 100 100
5 25 7 5 5 5 0 0 0 0 0 0 20 41 5 5 6 5 5 22 5 34 33 10 5 5 100 100 100 100 100 100 94 70 100 100 100 100 100 100 100 100 100 100
50 53 18 22 14 6 0 2 0 0 0 4 11 5 3 5 5 5 11 23 23 5 5 5 5 85 93 36 30 32 67 100 90 99 100 100 100 100 100 100 100 100 100 100
33 15 29 5 5 13 5 5 4 5 5 5 5 8 8 5 5 5 5 21 18 5 5 9 99 100 35 5 5 7 49 100 100 100 100 100 100 100 100 100 100 100 100 100
40 75 68 5 47 5 17 5 5 5 5 5 5 5 5 29 12 5 5 5 5 12 100 100 96 11 18 36 82 96 85 100 100 100 100 100 100 100 100 100 100 100 100 100
75 55 72 11 91 63 5 21 13 5 5 5 28 9 5 36 5 5 41 16 96 100 100 90 52 93 83 90 100 100 100 100 100 100 100 100 100 100 100 100 100 100 100 100
43 59 19 11 5 5 5 6 38 57 5 5 33 68 47 41 48 54 100 100 100 100 80 92 59 88 88 80 100 100 100 100 100 100 100 100 100 100 100 100 100 100 93 100
42 39 31 5 5 8 6 13 98 9 80 95 87 100 100 100 100 100 100 88 98 88 50 56 100 100 100 100 100 100 100 100 100 100 100 100 100 100 100 100 100 100 100 92
59 30 5 5 5 5 5 90 46 28 35 89 100 100 100 100 100 77 46 42 64 91 100 100 100 100 100 100 100 91 98 99 100 100 100 100 100 100 100 100 100 87 18 41
43 24 49 10 96 14 51 36 60 69 100 100 100 100 100 80 68 53 90 100 100 100 100 100 100 100 100 93 81 81 98 100 100 100 100 100 100 100 60 18 5 5 3 5